Tracking 23726 objects as of 22-Sep-2021
HD Live streaming from Space Station
objects crossing your sky now

SHIYAN 6 02 (SY-6 02)

Track SHIYAN 6 02 (SY-6 02) now!
10-day predictions


NORAD ID: 45859
Int'l Code: 2020-043A
Perigee: 666.9 km
Apogee: 798.0 km
Inclination: 98.2 °
Period: 99.3 minutes
Semi major axis: 7103 km
RCS: Unknown
Launch date: July 4, 2020
Source: People's Republic of China (PRC)
Launch site: Jiuquan Satellite Launch Center, China (JSC)
aabbcc
Your satellite tracking list
Your tracking list is empty




NASA's NSSDC Master Catalog

Two Line Element Set (TLE):
1 45859U 20043A   21265.72090501 -.00000070  00000-0 -54292-5 0  9996
2 45859  98.2033 274.2716 0092264 206.9388 152.7001 14.50110274 64928
Source of the keplerian elements: AFSPC